Location: Chervonnoye
(48.6000°N, 34.4000°E)
Time: 05:46:27
(UTC+00:00)

Cosmos 2333 Rocket - Pass Details

Date: 23 November 2020
Orbit: 841 x 861 km, 70.8° (Epoch: 18 January)

Event Time Altitude Azimuth Distance (km) Brightness Sun altitude
Rises 15:32:31 0° 232° (SW) 3,404 6.6 -15.8°
Reaches altitude 10° 15:35:08 10° 241° (WSW) 2,469 5.8 -16.2°
Maximum altitude 15:40:24 38° 309° (NW) 1,264 3.4 -17.1°
Drops below altitude 10° 15:45:41 10° 17° (NNE) 2,472 4.4 -17.9°
Enters shadow 15:46:19 - 20° (NNE) 2,693 4.5 -18.0°
